BREEZE-M DEB (TANK), 44627

Orbit data source: Space-Track

BREEZE-M DEB (TANK), 44627 is space debris in HEO originally from a launch on Wed, 09 Oct 2019 UTC launched from the Tyuratam Missile And Space Complex (TTMTR). Debris objects in space refer to the collection of defunct objects orbiting the Earth. Examples of debris include non-operational satellites, rocket bodies, and fragments generated from explosions, collisions, or faulty payload assembly.

Loading next visibility...
Identifier
44627, 2019-067D
Orbit
HEO
Last TLE update
2 days ago
Origin
Manufacturer
Khrunichev
Mission
Spacecraft
Bus & Motor
BRIZ TANK, Unknown motor
Mass
~1,000 kg wet, 1,000 kg dry
Launch date (UTC)
2019-10-09 (6 years ago)
Launch vehicle
Unknown
Launch site
Tyuratam Missile And Space Complex (TTMTR)
Object type
Payload
Rocket body
Debris
Shape & HBR
Torus, Unknown HBR
Radar Cross Section
8.218 m², Large (>1 m²)

Expand to show TLE details & history

TLE from 2 days ago
0 BREEZE-M DEB (TANK)
1 44627U 19067D   25186.28004380  .00001840  00000-0  11913-2 0  9993
2 44627  50.4181  64.4457 5762491  60.2947 344.7448  4.32760635 88855
Epoch: 2025-07-05T06:43Z
TLE epoch observation values (Epoch: 2025-07-05T06:43:15.784Z)
Latitude
0.00004°
Longitude
40.13468°
Altitude
1,872.727 km
Speed
8.46 km/s
True Right ascension
04h 17m 52s
True Declination
0° 00' 00"
Sunlit
Object was in daylight at epoch
Visualization orbit readout
Latitude
-6.28807°
Longitude
33.86208°
Altitude
2,432.78 km
Speed
8.089 km/s
Apparent Right ascension
03h 35m 01s
Apparent Declination
-20° 19' 28"
Sunlit
Object is in daylight
Visualization observer readout
Local Sidereal Time
15:03:11
Azimuth
338.496° N
Elevation
-69.257°
Doppler factor
1
Orbital elements
Apogee altitude
18,695.089 km
Perigee altitude
362.423 km
Semi-major axis
15,906.893 km
Eccentricity
0.57625
Inclination
50.4181°
RAAN
64.4457°
Arg. of periapsis
60.2947°
True anomaly
Unknown
Mean anomaly
344.7448°
Eccentric anomaly
Unknown
Mean motion
1.08185 °/min
Orbital period
332.76 mins
BSTAR
0.0011913
Loading maneuver chart data...
Loading SW <> Apogee altitude chart data...
Loading historical data...
Loading historical data...
Loading historical data...
Loading historical data...
Loading historical data...
Loading historical data...
Loading historical data...
Other satellites on launch #67 in the year 2019 (2019-10-09 UTC)

BREEZE-M DEB (TANK) Visibility forecast

Observer location: undefined°, undefined°

Span
Click to sort rows by Start time (UTC) header in descending order
Start Az.
Max El. time (UTC)
Max El. Az.
Max El.
End time (UTC)
End Az.
70 mins2025-07-07 03:33:18.394Z285° WNW2025-07-07 03:43:18.394Z222.568° SW34.419°2025-07-07 04:43:18.394Z168.632° S
49 mins2025-07-08 01:41:18.394Z297.925° NW2025-07-08 01:46:18.394Z233.524° WSW43.983°2025-07-08 02:30:18.394Z141.585° SSE
|